Location: ???????
(54.6339°N, 39.4245°E)
Time: 02:41:40
(UTC+00:00)

IKONOS-2 - Pass Details

Date: 19 May 2025
Orbit: 576 x 585 km, 98.2° (Epoch: 13 June)

Event Time Altitude Azimuth Distance (km) Brightness Sun altitude
Rises 18:42:58 0° 15° (NNE) 2,808 8.5 -8.3°
Reaches altitude 10° 18:45:08 10° 15° (NNE) 1,904 7.7 -8.5°
Maximum altitude 18:49:16 85° 288° (WNW) 589 4.5 -8.9°
Drops below altitude 10° 18:53:22 10° 199° (SSW) 1,893 6.7 -9.2°
Sets 18:55:31 0° 199° (SSW) 2,789 7.6 -9.4°
